Springfield, VT

6:10 PM EDT on September 20, 2017 (GMT -0400)
Hartness State

Weather History for KVSF - February, 2013

Change the Weather History Date:

Saturday, February 9, 2013

  Actual Average Record
Temperature  
Mean Temperature 16 °F 22 °F  
Max Temperature 22 °F 32 °F 42 °F (2004)
Min Temperature 10 °F 12 °F -5 °F (1997)
Degree Days  
Heating Degree Days 49 43  
Month to date heating degree days 416 398  
Since 1 July heating degree days 4140 4670  
Cooling Degree Days 0 0  
Month to date cooling degree days 0  
Year to date cooling degree days 0  
Moisture  
Dew Point 4 °F    
Average Humidity 65    
Maximum Humidity 84    
Minimum Humidity 45    
Precipitation  
Precipitation 0.24 in 0.10 in 0.32 in (2008)
Month to date precipitation 0.67 0.84  
Year to date precipitation 2.00 3.76  
Sea Level Pressure  
Sea Level Pressure 29.99 in    
Wind  
Wind Speed 9 mph (NNW)    
Max Wind Speed 23 mph    
Max Gust Speed 41 mph    
Visibility 5 miles    
Events Fog , Snow    
T = Trace of Precipitation, MM = Missing Value Source: NWS Daily Summary

Daily Weather History Graph

Daily Weather History Graph

Search for Another Location

Airport or City:

Trip Planner

Search our weather history database for the weather conditions in past years. The results will help you decide how hot, cold, wet, or windy it might be!

Date:

Astronomy

Feb. 09, 2013 Rise Set
Actual Time 6:56 AM EST 5:13 PM EST
Civil Twilight 6:26 AM EST 5:42 PM EST
Nautical Twilight 5:52 AM EST 6:16 PM EST
Astronomical Twilight 5:19 AM EST 6:49 PM EST
Moon 6:05 AM EST (2/9) 4:53 PM EST (2/9)
Length of Visible Light 11h 16m
Length of Day
10h 17m
Waning Crescent, 0% of the Moon is Illuminated
Feb 9
Waning Crescent
Feb 10
New
Feb 17
First Quarter
Feb 25
Full
Mar 4
Last Quarter

Hourly Weather History & Observations

Time (EST) Temp. Windchill Dew Point Humidity Pressure Visibility Wind Dir Wind Speed Gust Speed Precip Events Conditions
12:54 AM 19.0 °F 10.0 °F 15.1 °F 85% 29.85 in 0.5 mi North 6.9 mph - 0.06 in Fog , Snow Snow
1:54 AM 18.0 °F 5.4 °F 12.9 °F 81% 29.84 in 0.5 mi North 11.5 mph 21.9 mph 0.05 in Snow Snow
2:54 AM 18.0 °F 6.1 °F 12.0 °F 78% 29.85 in 0.8 mi NW 10.4 mph 19.6 mph 0.05 in Snow Light Snow
3:19 AM 17.6 °F 9.3 °F 12.2 °F 79% 29.82 in 0.8 mi Variable 5.8 mph - 0.01 in Snow Light Snow
3:38 AM 17.6 °F 7.3 °F 12.2 °F 79% 29.82 in 0.5 mi North 8.1 mph 19.6 mph 0.02 in Snow Snow
3:54 AM 17.1 °F 5.8 °F 10.9 °F 77% 29.85 in 0.5 mi NNW 9.2 mph 19.6 mph 0.03 in Snow Snow
4:39 AM 17.6 °F 6.4 °F 10.4 °F 73% 29.82 in 0.8 mi North 9.2 mph 20.7 mph 0.02 in Snow Light Snow
4:54 AM 17.1 °F 3.0 °F 10.0 °F 74% 29.85 in 0.5 mi North 13.8 mph 25.3 mph 0.03 in Snow Snow
5:06 AM 17.6 °F 3.2 °F 10.4 °F 73% 29.82 in 0.5 mi NNW 15.0 mph 28.8 mph 0.00 in Snow Snow
5:45 AM 17.6 °F 5.0 °F 8.6 °F 68% 29.82 in 0.8 mi North 11.5 mph 32.2 mph 0.00 in Snow Light Snow
5:54 AM 17.1 °F 4.3 °F 9.0 °F 71% 29.86 in 1.2 mi North 11.5 mph 25.3 mph 0.00 in Snow Light Snow
6:21 AM 17.6 °F 4.3 °F 8.6 °F 68% 29.83 in 2.0 mi North 12.7 mph 25.3 mph 0.00 in Snow Light Snow
6:38 AM 17.6 °F 3.2 °F 6.8 °F 63% 29.84 in 4.0 mi North 15.0 mph 25.3 mph 0.00 in Snow Light Snow
6:54 AM 17.1 °F 6.6 °F 7.0 °F 65% 29.88 in 6.0 mi North 8.1 mph 24.2 mph 0.00 in   Overcast
7:54 AM 16.0 °F -0.9 °F 3.9 °F 59% 29.94 in 2.5 mi North 19.6 mph 32.2 mph 0.00 in   Overcast
8:08 AM 15.8 °F -0.2 °F 3.2 °F 58% 29.91 in 3.0 mi North 17.3 mph 31.1 mph 0.00 in   Overcast
8:14 AM 15.8 °F -1.1 °F 3.2 °F 58% 29.91 in 1.8 mi North 19.6 mph 32.2 mph 0.00 in   Overcast
8:54 AM 15.1 °F -1.6 °F 1.9 °F 56% 29.97 in 2.0 mi North 18.4 mph 32.2 mph 0.00 in   Overcast
9:09 AM 15.8 °F -0.2 °F 3.2 °F 58% 29.94 in 4.0 mi North 17.3 mph 29.9 mph 0.00 in   Overcast
9:54 AM 16.0 °F 2.3 °F 1.9 °F 54% 29.99 in 9.0 mi North 12.7 mph 23.0 mph 0.00 in   Mostly Cloudy
10:54 AM 18.0 °F 6.1 °F 1.0 °F 48% 30.00 in 7.0 mi North 10.4 mph 23.0 mph 0.00 in   Overcast
11:54 AM 21.9 °F 12.5 °F 3.9 °F 46% 29.99 in 10.0 mi NNW 8.1 mph - N/A   Overcast
12:54 PM 18.0 °F 6.9 °F 3.0 °F 52% 30.01 in 10.0 mi West 9.2 mph 19.6 mph N/A   Scattered Clouds
1:48 PM 19.4 °F 7.9 °F 3.2 °F 49% 30.00 in 0.8 mi NW 10.4 mph 19.6 mph N/A   Haze
1:54 PM 18.0 °F 6.9 °F 1.9 °F 50% 30.04 in 0.5 mi WNW 9.2 mph 21.9 mph 0.02 in Snow Snow
1:58 PM 19.4 °F 8.6 °F 1.4 °F 46% 30.01 in 3.0 mi West 9.2 mph 21.9 mph 0.01 in   Haze
2:54 PM 18.0 °F 6.1 °F 1.0 °F 48% 30.07 in 10.0 mi WNW 10.4 mph 17.3 mph 0.01 in   Partly Cloudy
3:54 PM 18.0 °F 6.9 °F -0.0 °F 45% 30.11 in 10.0 mi NW 9.2 mph - N/A   Clear
4:54 PM 17.1 °F 6.6 °F -0.0 °F 47% 30.13 in 10.0 mi WNW 8.1 mph 17.3 mph N/A   Clear
5:54 PM 15.1 °F 3.3 °F -2.0 °F 47% 30.18 in 10.0 mi NW 9.2 mph - N/A   Clear
6:54 PM 12.9 °F 5.2 °F -4.0 °F 47% 30.23 in 10.0 mi WNW 4.6 mph - N/A   Clear
7:54 PM 14.0 °F 2.0 °F -4.0 °F 45% 30.26 in 10.0 mi North 9.2 mph - N/A   Clear
8:54 PM 14.0 °F - -4.0 °F 45% 30.28 in 10.0 mi Calm Calm - N/A   Clear
9:54 PM 14.0 °F - -4.0 °F 45% 30.29 in 10.0 mi Calm Calm - N/A   Clear
10:54 PM 10.9 °F 4.7 °F -5.1 °F 49% 30.30 in 10.0 mi Variable 3.5 mph - N/A   Clear
11:54 PM 12.0 °F 0.5 °F -6.0 °F 44% 30.31 in 10.0 mi WNW 8.1 mph - N/A   Clear